Regional Weather Roundup
Issued by NWS Austin/San Antonio, TX

Home | Current Version | Previous Version | Text Only | Print | Product List | Glossary On
Versions: 1 2 3 4 5 6 7 8 9 10 11 12 13 14 15 16 17 18 19 20 21 22 23 24 25 26 27 28 29 30 31 32 33 34 35 36 37 38 39 40 41 42 43 44 45 46 47 48 49 50
068
ASUS44 KEWX 161910
RWREWX
SOUTH TEXAS REGIONAL WEATHER ROUNDUP
NATIONAL WEATHER SERVICE AUSTIN/SAN ANTONIO TX
100 PM CST TUE JAN 16 2018

NOTE: "FAIR" INDICATED FEW OR NO CLOUDS BELOW 12,000 FEET WITH NO
SIGNIFICANT WEATHER AND/OR OBSTRUCTIONS TO VISIBILITY.

* - THESE STATIONS ARE NOT NWS OR FAA STATIONS...AND ARE NOT SUBJECT
    TO NWS AND FAA QUALITY CONTROL.

TXZ171-172-183>190-162000-
TEXAS HILL COUNTRY AND EDWARDS PLATEAU

CITY           SKY/WX    TMP DP  RH WIND       PRES   REMARKS
JUNCTION       CLOUDY    26   1  34 N16       30.67F WCI  14
*LLANO         CLOUDY    28   5  37 N15G21    30.75F WCI  17
BURNET         CLOUDY    26   0  32 N15G26    30.70F WCI  14
*HORSESHOE BAY CLOUDY    27   5  39 N7G17     30.70F WCI  20
*KERRVILLE     CLOUDY    24   6  46 N20G25    30.65S WCI  10
*FREDERICKSBRG CLOUDY    25  -3  29 N21       30.64F WCI  11
*ROCKSPRINGS     N/A     23   0  36 N10G21    30.66F WCI  12
*BOERNE STAGE  CLOUDY    25   9  50 N9G23     30.65F WCI  15
*CASTROVILLE   FLURRIES  29  18  63 N8        30.70F WCI  21
HONDO          CLOUDY    31  20  63 N22       30.69F WCI  18
*UVALDE        CLOUDY    31  16  54 NE12      30.70F WCI  22
DEL RIO        CLOUDY    33   0  24 N14G23    30.72F WCI  23
LAUGHLIN AFB   CLOUDY    34   0  23 N18       30.70F WCI  23
CARRIZO SPRGS  CLOUDY    32  23  69 N10G16    30.71F WCI  24
*EAGLE PASS    CLOUDY    36   7  30 N12G20    30.71F WCI  27
*FAITH RANCH   CLOUDY    32  23  69 N13G20    30.70F WCI  22
$$

TXZ173-191>194-202-209-217>225-228-162000-
CENTRAL AND SOUTH CENTRAL TEXAS

CITY           SKY/WX    TMP DP  RH WIND       PRES   REMARKS
GEORGETOWN     CLOUDY    26   5  40 N17       30.72F WCI  13
AUSTIN/BERGSTM CLOUDY    27  16  63 N22       30.69F WCI  13
AUSTIN/MABRY   CLOUDY    27   8  44 N14G25    30.70F WCI  16
*AUSTIN/EXEC   CLOUDY    27  10  50 N21       30.70F WCI  13
*LAGO VISTA    CLOUDY    26   5  41 MISG      30.67F
SAN MARCOS     CLOUDY    27  16  63 N18       30.70F WCI  14
NEW BRAUNFELS  MIX PCPN  27  17  66 N23       30.68F WCI  12
RANDOLPH AFB   MIX PCPN  27  14  59 N15G25    30.66F WCI  15
PT SAN ANTONIO MIX PCPN  28  18  64 N14       30.66F WCI  17
SAN ANTONIO    LGTSLEET  28  16  60 N16       30.68F WCI  16
STINSON FIELD  MIX PCPN  30  16  56 N16G23    30.68F WCI  19
*LA GRANGE     CLOUDY    26  19  73 N16G22    30.68S WCI  14
*GIDDINGS      CLOUDY    25  15  66 N13G18    30.69F WCI  13
*GONZALES      CLOUDY    27  21  79 N22G31    30.69F WCI  13
$$

TXZ163>164-176>182-195>201-210>213-226-227-235-162000-
SOUTHEAST TEXAS

CITY           SKY/WX    TMP DP  RH WIND       PRES   REMARKS
COLLEGE STN    CLOUDY    25  15  66 N18       30.70F WCI  11
*BRYAN         CLOUDY    24  13  64 N14G21    30.71F WCI  12
*CALDWELL      CLOUDY    25  15  67 N16G22    30.70F WCI  12
*CROCKETT        N/A     25  16  68 CALM      30.71F
*BRENHAM       LGT SNOW  26  17  67 N14G20    30.69F WCI  15
HUNTSVILLE     CLOUDY    24  18  77 N9        30.66F WCI  14
CONROE         FLURRIES  25  19  78 N13G22    30.66F WCI  14
HOUSTON BUSH   LGTSLEET  26  22  84 N17G28    30.64F FOG     WCI  13
HOUSTON HOBBY  LGTSLEET  27  27 100 N17G23    30.61F FOG     WCI  14
*HOUSTON SW AP CLOUDY    27  25  91 MISG      30.64S FOG
PEARLAND       LGT SNOW  29  28  96 N15G21    30.63S FOG     WCI  18
HOUSTON HOOKS  MIX PCPN  26  22  84 N12G20    30.65F WCI  16
ELLINGTON FLD  LGTSLEET  27  27 100 NW12G23   30.62F VSB 1   WCI  16
SUGAR LAND     LGT SNOW  28  24  85 N17G24    30.63F FOG     WCI  16
*HOUSTON EXEC  MIX PCPN  25  21  86 CALM      30.66F
*CLEVELAND MUN FLURRIES  26  22  83 N10G17    30.66F WCI  16
*WHARTON       NOT AVBL
*COLUMBUS      MIX PCPN  25  19  75 N14G21    30.67F WCI  14
*EAGLE LAKE    MIX PCPN  27  22  82 MISG      30.66F
$$

TXZ214>216-236>238-162000-
THE UPPER TEXAS COAST

CITY           SKY/WX    TMP DP  RH WIND       PRES   REMARKS
*ORANGE        MIX PCPN  32  31  96 N10G20    30.59F WCI  24
PORT ARTHUR    MIX PCPN  31  28  89 N21G28    30.58S WCI  18
GALVESTON      CLOUDY    34  31  88 N18G31    30.58F FOG     WCI  23
ANGLETON       LGT SNOW  31  27  85 N17G31    30.60S FOG     WCI  19
*BAY CITY      NOT AVBL
PALACIOS       MIX PCPN  29  28  96 N22G35    30.61F FOG     WCI  15
$$

TXZ229>234-239>247-162000-
TEXAS COASTAL BEND AND RIO GRANDE PLAINS

CITY           SKY/WX    TMP DP  RH WIND       PRES   REMARKS
VICTORIA       CLOUDY    28  21  75 N21G32    30.65F WCI  15
*BEEVILLE      MIX PCPN  28  22  76 N16G26    30.66F WCI  16
ROCKPORT       CLOUDY    30  26  85 N24G35    30.62S WCI  16
*PORT ARANSAS  NOT AVBL
*PORT LAVACA   CLOUDY    28  24  86 N20G31    30.63F WCI  15
*INGLESIDE     NOT AVBL
CORPUS CHRISTI FRZ DRZL  31  27  85 N23G32    30.64S WCI  18
CORPUS NAS     CLOUDY    34  31  88 N29G38    30.62S FOG     WCI  20
*ROBSTOWN      NOT AVBL
ALICE          LGT SNOW  29  25  85 N22G30    30.65F FOG     WCI  15
KINGSVILLE NAS CLOUDY    31  28  89 N18G29    30.64F FOG     WCI  19
COTULLA        CLOUDY    31  21  66 N12       30.71F WCI  22
LAREDO         FLURRIES  30  27  86 N21G26    30.69F WCI  17
$$

TXZ248>255-162000-
DEEP SOUTH TEXAS

CITY           SKY/WX    TMP DP  RH WIND       PRES   REMARKS
BROWNSVILLE    LGT RAIN  39  36  87 N21G36    30.54F WCI  29
PORT ISABEL    NOT AVBL
*SOUTH PADRE   NOT AVBL
HARLINGEN      NOT AVBL
*HEBBRONVILLE  CLOUDY    29  27  92 N16G24    30.65F FOG     WCI  18
MCALLEN        CLOUDY    37  32  81 N22G35    30.61S WCI  27
*WESLACO       CLOUDY    35  31  87 N23G30    30.59F WCI  23
FALFURRIAS     CLOUDY    32  28  84 N20G29    30.64F WCI  20
EDINBURG       CLOUDY    37  32  82 N23G31    30.62F WCI  26
*ZAPATA        LGT RAIN  33  31  94 N21       30.66F WCI  21
$$

TXZ213>215-236>238-242>244-246-247-251-254-255-162000-
CMAN STATIONS

STATION/POSITION TIME  TEMP    WIND        PRES    WAVE
                       AIR SEA DIR/SP/G            HT/PER
                 (UTC) (F)     (DEG/KT/KT) (MB)    (FT/S)
SABINE PASS      1848   34 51  360/ 19/ 25 1036.4
SEA RIM ST PARK  1900   31     360/ 15/ 18 1035.4
NORTH JETTY/GLS  1842      48  360/ 13/ 16 1034.6
EAGLE POINT      1848   30 47   20/  9/ 14 1036.0
MORGANS POINT    1848      49   10/  6/  8 1036.5
PORT O`CONNOR    1848   31 43   10/ 26/ 30 1036.9
MALAQUITE BEACH  1842   34 54  350/ 27/ 33 1036.1
BAFFIN BAY       1848   33 52  340/ 21/ 27 1037.1
PORT ISABEL      1848   40 58  330/ 21/ 27 1033.1
$$




USA.gov is the U.S. government's official web portal to all federal, state and local government web resources and services.